• In Belarus
  • List of Countries
  • For 7 days
  • Water Temperature
  • Satellite Maps
  • Weather Map
  • Weather Widgets
  • user-avatar
    Login

    Hourly Weather Konstantyna

    Today, 15 August, Wednesday

    Time Temperature Precipitation Wind Pressure Humidity
    00:00 +25°C° 0 mm 1 mps 711 mmHg 73%
    01:00 +24°C° 0 mm 1 mps 711 mmHg 75%
    02:00 +24°C° 0 mm 1 mps 711 mmHg 78%
    03:00 +23°C° 0 mm 1 mps 711 mmHg 80%
    04:00 +23°C° 0 mm 1 mps 711 mmHg 81%
    05:00 +23°C° 0 mm 1 mps 711 mmHg 82%
    06:00 +23°C° 0 mm 1 mps 711 mmHg 82%
    07:00 +24°C° 0 mm 2 mps 711 mmHg 75%
    08:00 +26°C° 0 mm 2 mps 711 mmHg 68%
    09:00 +27°C° 0 mm 2 mps 712 mmHg 61%
    10:00 +28°C° 0 mm 3 mps 712 mmHg 56%
    11:00 +29°C° 0 mm 3 mps 712 mmHg 52%
    12:00 +29°C° 0 mm 4 mps 712 mmHg 48%
    13:00 +30°C° 0 mm 4 mps 712 mmHg 47%
    14:00 +30°C° 0 mm 4 mps 711 mmHg 47%
    15:00 +30°C° 0 mm 5 mps 711 mmHg 46%
    16:00 +29°C° 0 mm 5 mps 711 mmHg 49%
    17:00 +28°C° 0 mm 4 mps 711 mmHg 53%
    18:00 +27°C° 0 mm 4 mps 711 mmHg 56%
    19:00 +26°C° 0 mm 3 mps 711 mmHg 60%
    20:00 +25°C° 0 mm 3 mps 711 mmHg 63%
    21:00 +24°C° 0 mm 2 mps 711 mmHg 67%
    22:00 +23°C° 0 mm 1 mps 711 mmHg 69%
    23:00 +23°C° 0 mm 1 mps 711 mmHg 71%

    Tomorrow, 16 August, Thursday

    Time Temperature Precipitation Wind Pressure Humidity
    00:00 +22°C° 0 mm 1 mps 711 mmHg 73%
    01:00 +22°C° 0 mm 1 mps 710 mmHg 73%
    02:00 +22°C° 0 mm 1 mps 710 mmHg 74%
    03:00 +21°C° 0 mm 1 mps 709 mmHg 75%
    04:00 +22°C° 0 mm 1 mps 710 mmHg 73%
    05:00 +22°C° 0 mm 1 mps 710 mmHg 70%
    06:00 +22°C° 0 mm 1 mps 710 mmHg 68%
    07:00 +24°C° 0 mm 1 mps 710 mmHg 58%
    08:00 +24°C° 0 mm 0 mps 711 mmHg 49%
    09:00 +26°C° 0 mm 0 mps 711 mmHg 39%
    10:00 +29°C° 0 mm 1 mps 711 mmHg 35%
    11:00 +31°C° 0 mm 2 mps 711 mmHg 31%
    12:00 +33°C° 0 mm 3 mps 711 mmHg 26%
    13:00 +33°C° 0 mm 3 mps 710 mmHg 27%
    14:00 +34°C° 0 mm 4 mps 710 mmHg 27%
    15:00 +34°C° 0 mm 4 mps 710 mmHg 28%
    16:00 +33°C° 0 mm 4 mps 709 mmHg 34%
    17:00 +30°C° 0 mm 4 mps 709 mmHg 41%
    18:00 +29°C° 0 mm 4 mps 709 mmHg 47%
    19:00 +28°C° 0.1 mm 3 mps 709 mmHg 52%
    20:00 +27°C° 0.1 mm 2 mps 710 mmHg 57%
    21:00 +26°C° 0.1 mm 1 mps 710 mmHg 62%
    22:00 +26°C° 0 mm 1 mps 710 mmHg 63%
    23:00 +26°C° 0 mm 1 mps 710 mmHg 63%

    Day after tomorrow, 17 August, Friday

    Time Temperature Precipitation Wind Pressure Humidity
    00:00 +26°C° 0 mm 1 mps 709 mmHg 64%
    01:00 +25°C° 0 mm 1 mps 709 mmHg 66%
    02:00 +23°C° 0 mm 0 mps 709 mmHg 68%
    03:00 +22°C° 0 mm 0 mps 709 mmHg 71%
    04:00 +22°C° 0 mm 0 mps 709 mmHg 70%
    05:00 +22°C° 0 mm 0 mps 709 mmHg 70%
    06:00 +22°C° 0 mm 0 mps 709 mmHg 69%
    07:00 +26°C° 0 mm 1 mps 710 mmHg 62%
    08:00 +27°C° 0 mm 1 mps 710 mmHg 54%
    09:00 +29°C° 0 mm 1 mps 711 mmHg 47%
    10:00 +30°C° 0 mm 2 mps 711 mmHg 43%
    11:00 +31°C° 0 mm 3 mps 711 mmHg 39%
    12:00 +33°C° 0 mm 3 mps 711 mmHg 35%
    13:00 +33°C° 0 mm 3 mps 711 mmHg 36%
    14:00 +33°C° 0 mm 4 mps 711 mmHg 37%
    15:00 +33°C° 0 mm 4 mps 710 mmHg 38%
    16:00 +30°C° 0.2 mm 4 mps 710 mmHg 43%
    17:00 +29°C° 0.2 mm 4 mps 710 mmHg 49%
    18:00 +28°C° 0.2 mm 4 mps 710 mmHg 55%
    19:00 +27°C° 0.2 mm 3 mps 711 mmHg 59%
    20:00 +26°C° 0.2 mm 3 mps 711 mmHg 63%
    21:00 +25°C° 0.2 mm 2 mps 711 mmHg 68%
    22:00 +25°C° 0 mm 2 mps 711 mmHg 69%
    23:00 +24°C° 0 mm 1 mps 711 mmHg 71%

    18 August, Saturday

    Time Temperature Precipitation Wind Pressure Humidity
    00:00 +24°C° 0 mm 1 mps 711 mmHg 72%
    01:00 +24°C° 0 mm 1 mps 711 mmHg 74%
    02:00 +23°C° 0 mm 1 mps 711 mmHg 76%
    03:00 +23°C° 0 mm 1 mps 710 mmHg 77%
    04:00 +23°C° 0 mm 1 mps 711 mmHg 77%
    05:00 +23°C° 0 mm 1 mps 711 mmHg 77%
    06:00 +23°C° 0 mm 1 mps 711 mmHg 77%
    07:00 +24°C° 0.1 mm 1 mps 711 mmHg 69%
    08:00 +26°C° 0.1 mm 1 mps 712 mmHg 62%
    09:00 +27°C° 0.1 mm 1 mps 712 mmHg 55%
    10:00 +27°C° 0.6 mm 1 mps 712 mmHg 55%
    11:00 +27°C° 0.6 mm 1 mps 712 mmHg 55%
    12:00 +27°C° 0.6 mm 1 mps 712 mmHg 55%
    13:00 +28°C° 0.2 mm 2 mps 712 mmHg 52%
    14:00 +29°C° 0.2 mm 2 mps 712 mmHg 50%
    15:00 +29°C° 0.2 mm 2 mps 712 mmHg 47%
    16:00 +29°C° 0.1 mm 2 mps 712 mmHg 50%
    17:00 +28°C° 0.1 mm 3 mps 712 mmHg 53%
    18:00 +28°C° 0.1 mm 3 mps 712 mmHg 57%
    19:00 +27°C° 0 mm 2 mps 712 mmHg 61%
    20:00 +26°C° 0 mm 2 mps 712 mmHg 65%
    21:00 +25°C° 0 mm 2 mps 713 mmHg 69%
    22:00 +25°C° 0 mm 1 mps 713 mmHg 72%
    23:00 +24°C° 0 mm 1 mps 712 mmHg 75%

    19 August, Sunday

    Time Temperature Precipitation Wind Pressure Humidity
    00:00 +24°C° 0 mm 1 mps 712 mmHg 77%
    01:00 +23°C° 0 mm 1 mps 712 mmHg 79%
    02:00 +23°C° 0 mm 1 mps 712 mmHg 81%
    03:00 +23°C° 0 mm 1 mps 712 mmHg 83%
    04:00 +23°C° 0 mm 1 mps 712 mmHg 82%
    05:00 +23°C° 0 mm 1 mps 712 mmHg 82%
    06:00 +23°C° 0 mm 1 mps 713 mmHg 82%
    07:00 +24°C° 0 mm 1 mps 713 mmHg 74%
    08:00 +26°C° 0 mm 1 mps 713 mmHg 67%
    09:00 +27°C° 0 mm 1 mps 714 mmHg 59%
    10:00 +28°C° 0 mm 1 mps 714 mmHg 55%
    11:00 +29°C° 0 mm 2 mps 713 mmHg 51%
    12:00 +30°C° 0 mm 3 mps 713 mmHg 47%
    13:00 +30°C° 0 mm 3 mps 713 mmHg 47%
    14:00 +30°C° 0 mm 4 mps 713 mmHg 47%
    15:00 +30°C° 0 mm 4 mps 713 mmHg 47%
    16:00 +29°C° 0.2 mm 4 mps 713 mmHg 50%
    17:00 +28°C° 0.2 mm 4 mps 713 mmHg 54%
    18:00 +27°C° 0.2 mm 4 mps 712 mmHg 58%
    19:00 +26°C° 0.3 mm 3 mps 713 mmHg 61%
    20:00 +25°C° 0.3 mm 2 mps 713 mmHg 65%
    21:00 +24°C° 0.3 mm 1 mps 713 mmHg 68%
    22:00 +24°C° 0 mm 1 mps 712 mmHg 69%
    23:00 +24°C° 0 mm 1 mps 712 mmHg 70%

    20 August, Monday

    Time Temperature Precipitation Wind Pressure Humidity
    00:00 +23°C° 0 mm 1 mps 712 mmHg 71%
    01:00 +23°C° 0.1 mm 1 mps 712 mmHg 73%
    02:00 +22°C° 0.1 mm 1 mps 711 mmHg 74%
    03:00 +22°C° 0.1 mm 1 mps 711 mmHg 76%
    04:00 +22°C° 0 mm 1 mps 711 mmHg 75%
    05:00 +22°C° 0 mm 1 mps 711 mmHg 74%
    06:00 +22°C° 0 mm 1 mps 712 mmHg 74%
    07:00 +23°C° 0 mm 1 mps 712 mmHg 65%
    08:00 +25°C° 0 mm 2 mps 712 mmHg 56%
    09:00 +26°C° 0 mm 2 mps 713 mmHg 47%
    10:00 +27°C° 0 mm 2 mps 713 mmHg 43%
    11:00 +28°C° 0 mm 3 mps 713 mmHg 39%
    12:00 +30°C° 0 mm 3 mps 713 mmHg 35%
    13:00 +30°C° 0 mm 3 mps 713 mmHg 36%
    14:00 +30°C° 0 mm 4 mps 712 mmHg 37%
    15:00 +30°C° 0 mm 4 mps 712 mmHg 39%
    16:00 +29°C° 0 mm 4 mps 712 mmHg 45%
    17:00 +28°C° 0 mm 4 mps 712 mmHg 51%
    18:00 +27°C° 0 mm 4 mps 712 mmHg 58%
    19:00 +26°C° 0 mm 3 mps 712 mmHg 63%
    20:00 +25°C° 0 mm 2 mps 712 mmHg 68%
    21:00 +24°C° 0 mm 2 mps 712 mmHg 73%
    22:00 +23°C° 0 mm 1 mps 712 mmHg 75%
    23:00 +23°C° 0 mm 1 mps 712 mmHg 77%
    Show more